| time (UTC) | temp C | wind direction | speed KPH | gust KPH | rain 1hr cm | rain 24hr cm | rain mn cm | humidity % | barometer mb |
| 20260504141016 | 15 | 0 | 4.8 | 16.1 | 0.00 | 0.00 | 0.00 | 51 | 995.5 |
| 20260504081017 | 10 | 248 | 1.6 | 9.7 | 0.00 | 0.00 | 0.00 | 60 | 995.5 |
| 20260504060138 | 7 | 0.0 | 0.0 | 0.00 | 0.00 | 0.00 | 86 | 997.5 | |
| 20260504050017 | 7 | 0.0 | 0.0 | 0.00 | 0.00 | 0.00 | 80 | 998.8 | |
| 20260504045017 | 8 | 0.0 | 0.0 | 0.00 | 0.00 | 0.00 | 78 | 999.1 | |
| 20260504044016 | 8 | 0.0 | 0.0 | 0.00 | 0.00 | 0.00 | 77 | 999.3 | |
| 20260504043037 | 8 | 0.0 | 0.0 | 0.00 | 0.00 | 0.00 | 75 | 999.3 | |
| 20260504042036 | 8 | 0.0 | 0.0 | 0.00 | 0.00 | 0.00 | 74 | 999.5 | |
| 20260504041037 | 9 | 0.0 | 0.0 | 0.00 | 0.00 | 0.00 | 72 | 999.8 | |
| 20260504040017 | 9 | 0.0 | 0.0 | 0.00 | 0.00 | 0.00 | 70 | 999.9 | |
| 20260504035037 | 10 | 0.0 | 0.0 | 0.00 | 0.00 | 0.00 | 69 | 1000.2 | |
| 20260504034016 | 10 | 0.0 | 0.0 | 0.00 | 0.00 | 0.00 | 67 | 1000.4 | |
| 20260504033038 | 10 | 0.0 | 0.0 | 0.00 | 0.00 | 0.00 | 66 | 1000.4 | |
| 20260504032016 | 11 | 0.0 | 0.0 | 0.00 | 0.00 | 0.00 | 66 | 1000.6 | |
| 20260504031016 | 11 | 0.0 | 0.0 | 0.00 | 0.00 | 0.00 | 63 | 1000.7 | |
| 20260504030016 | 12 | 0.0 | 0.0 | 0.00 | 0.00 | 0.00 | 61 | 1000.7 | |
| 20260504025017 | 12 | 0.0 | 0.0 | 0.00 | 0.00 | 0.00 | 58 | 1000.7 | |
| 20260504024017 | 13 | 0.0 | 0.0 | 0.00 | 0.00 | 0.00 | 56 | 1000.8 | |
| 20260504023017 | 13 | 0.0 | 0.0 | 0.00 | 0.00 | 0.00 | 55 | 1000.8 | |
| 20260504022016 | 13 | 0.0 | 0.0 | 0.00 | 0.00 | 0.00 | 52 | 1000.9 | |
| 20260504021022 | 14 | 0.0 | 0.0 | 0.00 | 0.00 | 0.00 | 50 | 1001.0 | |
| 20260504020027 | 15 | 0.0 | 0.0 | 0.00 | 0.00 | 0.00 | 50 | 1001.0 | |
| 20260504015016 | 15 | 0.0 | 0.0 | 0.00 | 0.00 | 0.00 | 48 | 1001.0 | |
| 20260504014016 | 16 | 0.0 | 0.0 | 0.00 | 0.00 | 0.00 | 47 | 1001.1 | |
| 20260504013016 | 16 | 0.0 | 0.0 | 0.00 | 0.00 | 0.00 | 46 | 1001.1 | |
| 20260504012037 | 17 | 0.0 | 4.8 | 0.00 | 0.00 | 0.00 | 46 | 1001.2 | |
| 20260504011016 | 17 | 0.0 | 8.0 | 0.00 | 0.00 | 0.00 | 45 | 1001.2 | |
| 20260504010016 | 17 | 293 | 1.6 | 12.9 | 0.00 | 0.00 | 0.00 | 42 | 1001.2 |
| 20260504005016 | 18 | 0.0 | 4.8 | 0.00 | 0.00 | 0.00 | 39 | 1001.2 | |
| 20260504004036 | 18 | 0.0 | 1.6 | 0.00 | 0.00 | 0.00 | 40 | 1001.1 | |
| 20260504003016 | 18 | 315 | 1.6 | 9.7 | 0.00 | 0.00 | 0.00 | 36 | 1001.1 |
| 20260504002016 | 18 | 0.0 | 4.8 | 0.00 | 0.00 | 0.00 | 37 | 1001.2 | |
| 20260504001037 | 18 | 0.0 | 0.0 | 0.00 | 0.00 | 0.00 | 38 | 1001.4 | |
| 20260504000016 | 19 | 248 | 1.6 | 11.3 | 0.00 | 0.00 | 0.00 | 32 | 1001.4 |
| 20260503235016 | 19 | 270 | 1.6 | 9.7 | 0.00 | 0.00 | 0.00 | 34 | 1001.7 |
| 20260503234016 | 20 | 270 | 3.2 | 12.9 | 0.00 | 0.00 | 0.00 | 36 | 1001.5 |
| 20260503233016 | 20 | 338 | 1.6 | 6.4 | 0.00 | 0.00 | 0.00 | 36 | 1001.5 |
| 20260503232016 | 20 | 0.0 | 1.6 | 0.00 | 0.00 | 0.00 | 34 | 1001.8 | |
| 20260503231016 | 20 | 0.0 | 4.8 | 0.00 | 0.00 | 0.00 | 32 | 1001.9 | |
| 20260503230016 | 20 | 293 | 1.6 | 11.3 | 0.00 | 0.00 | 0.00 | 31 | 1001.9 |
| 20260503225016 | 20 | 0.0 | 8.0 | 0.00 | 0.00 | 0.00 | 33 | 1002.1 | |
| 20260503224016 | 20 | 0.0 | 4.8 | 0.00 | 0.00 | 0.00 | 35 | 1002.3 | |
| 20260503223036 | 20 | 248 | 1.6 | 11.3 | 0.00 | 0.00 | 0.00 | 29 | 1002.3 |
| 20260503222016 | 20 | 23 | 1.6 | 9.7 | 0.00 | 0.00 | 0.00 | 29 | 1002.3 |
| 20260503221016 | 20 | 0.0 | 11.3 | 0.00 | 0.00 | 0.00 | 32 | 1002.4 | |
| 20260503220016 | 20 | 248 | 3.2 | 17.7 | 0.00 | 0.00 | 0.00 | 29 | 1002.4 |
| 20260503215016 | 21 | 270 | 1.6 | 16.1 | 0.00 | 0.00 | 0.00 | 31 | 1002.3 |
| 20260503214016 | 21 | 270 | 3.2 | 12.9 | 0.00 | 0.00 | 0.00 | 29 | 1002.4 |
| 20260503213016 | 21 | 0.0 | 4.8 | 0.00 | 0.00 | 0.00 | 30 | 1002.4 | |
| 20260503212016 | 20 | 225 | 1.6 | 6.4 | 0.00 | 0.00 | 0.00 | 33 | 1002.6 |
| 20260503211056 | 20 | 293 | 1.6 | 12.9 | 0.00 | 0.00 | 0.00 | 29 | 1002.7 |
| 20260503210016 | 20 | 0 | 1.6 | 11.3 | 0.00 | 0.00 | 0.00 | 31 | 1002.7 |
| 20260503205056 | 20 | 293 | 1.6 | 8.0 | 0.00 | 0.00 | 0.00 | 32 | 1002.8 |
| 20260503204036 | 20 | 45 | 1.6 | 3.2 | 0.00 | 0.00 | 0.00 | 35 | 1003.0 |
| 20260503203016 | 20 | 270 | 1.6 | 11.3 | 0.00 | 0.00 | 0.00 | 31 | 1002.9 |
| 20260503202016 | 20 | 248 | 3.2 | 16.1 | 0.00 | 0.00 | 0.00 | 30 | 1003.1 |
| 20260503201016 | 20 | 248 | 1.6 | 11.3 | 0.00 | 0.00 | 0.00 | 37 | 1003.3 |
| 20260503200036 | 20 | 293 | 1.6 | 9.7 | 0.00 | 0.00 | 0.00 | 36 | 1003.3 |
| 20260503195016 | 21 | 0.0 | 8.0 | 0.00 | 0.00 | 0.00 | 34 | 1003.3 | |
| 20260503194016 | 21 | 315 | 3.2 | 12.9 | 0.00 | 0.00 | 0.00 | 36 | 1003.5 |
| 20260503193056 | 21 | 293 | 6.4 | 17.7 | 0.00 | 0.00 | 0.00 | 38 | 1003.5 |
| 20260503192016 | 21 | 293 | 3.2 | 17.7 | 0.00 | 0.00 | 0.00 | 33 | 1003.5 |
| 20260503191016 | 21 | 45 | 1.6 | 16.1 | 0.00 | 0.00 | 0.00 | 36 | 1003.6 |
| 20260503190018 | 21 | 0 | 1.6 | 11.3 | 0.00 | 0.00 | 0.00 | 33 | 1003.6 |
| 20260503185019 | 21 | 45 | 3.2 | 19.3 | 0.00 | 0.00 | 0.00 | 31 | 1003.6 |
| 20260503184018 | 21 | 270 | 1.6 | 11.3 | 0.00 | 0.00 | 0.00 | 37 | 1003.8 |
| 20260503183017 | 21 | 45 | 1.6 | 6.4 | 0.00 | 0.00 | 0.00 | 40 | 1003.8 |
| 20260503182017 | 21 | 270 | 3.2 | 19.3 | 0.00 | 0.00 | 0.00 | 37 | 1003.8 |
| 20260503181017 | 21 | 68 | 1.6 | 9.7 | 0.00 | 0.00 | 0.00 | 42 | 1003.9 |
| 20260503180017 | 21 | 293 | 4.8 | 19.3 | 0.00 | 0.00 | 0.00 | 39 | 1003.9 |
| 20260503175018 | 21 | 293 | 3.2 | 17.7 | 0.00 | 0.00 | 0.00 | 41 | 1004.1 |
| 20260503174017 | 21 | 293 | 4.8 | 22.5 | 0.00 | 0.00 | 0.00 | 38 | 1004.1 |
| 20260503173017 | 21 | 338 | 4.8 | 22.5 | 0.00 | 0.00 | 0.00 | 40 | 1004.1 |
| 20260503172017 | 21 | 0 | 3.2 | 12.9 | 0.00 | 0.00 | 0.00 | 41 | 1004.2 |
| 20260503171038 | 21 | 0 | 1.6 | 9.7 | 0.00 | 0.00 | 0.00 | 41 | 1004.3 |